TimeCDT,TemperatureF,Dew PointF,Humidity,Sea Level PressureIn,VisibilityMPH,Wind Direction,Wind SpeedMPH,Gust SpeedMPH,PrecipitationIn,Events,Conditions,WindDirDegrees,DateUTC
12:51 AM,44.1,30.0,58,30.19,10.0,North,4.6,-,N/A,,Overcast,10,2012-11-03 05:51:00
1:13 AM,42.8,30.2,61,30.17,10.0,NE,5.8,-,N/A,,Overcast,40,2012-11-03 06:13:00
1:51 AM,44.1,30.0,58,30.18,10.0,NNE,9.2,-,N/A,,Mostly Cloudy,20,2012-11-03 06:51:00
2:51 AM,43.0,28.9,58,30.18,10.0,East,8.1,-,N/A,,Mostly Cloudy,80,2012-11-03 07:51:00
3:51 AM,43.0,28.9,58,30.15,10.0,ENE,10.4,-,N/A,,Mostly Cloudy,70,2012-11-03 08:51:00
4:42 AM,42.8,32.0,66,30.13,10.0,ENE,12.7,-,N/A,,Mostly Cloudy,60,2012-11-03 09:42:00
4:51 AM,43.0,32.0,65,30.15,10.0,ENE,13.8,-,N/A,,Mostly Cloudy,70,2012-11-03 09:51:00
5:08 AM,42.8,33.8,70,30.14,10.0,ENE,10.4,-,N/A,,Mostly Cloudy,60,2012-11-03 10:08:00
5:51 AM,43.0,33.1,68,30.18,10.0,ENE,8.1,-,N/A,,Mostly Cloudy,70,2012-11-03 10:51:00
5:58 AM,42.8,33.8,70,30.17,10.0,East,6.9,-,N/A,,Overcast,90,2012-11-03 10:58:00
6:51 AM,43.0,33.1,68,30.19,10.0,East,11.5,-,N/A,,Overcast,90,2012-11-03 11:51:00
7:51 AM,43.0,33.1,68,30.20,10.0,East,10.4,-,N/A,,Overcast,80,2012-11-03 12:51:00
8:51 AM,43.0,32.0,65,30.22,10.0,ENE,10.4,-,N/A,,Overcast,70,2012-11-03 13:51:00
9:51 AM,42.1,33.1,70,30.23,10.0,East,8.1,-,N/A,,Overcast,100,2012-11-03 14:51:00
10:51 AM,43.0,33.1,68,30.23,10.0,SE,8.1,-,N/A,,Overcast,130,2012-11-03 15:51:00
11:51 AM,43.0,33.1,68,30.23,10.0,East,9.2,-,N/A,,Overcast,100,2012-11-03 16:51:00
12:27 PM,42.8,33.8,70,30.21,10.0,East,5.8,-,N/A,,Overcast,100,2012-11-03 17:27:00
12:51 PM,43.0,33.1,68,30.21,10.0,East,6.9,-,N/A,,Overcast,80,2012-11-03 17:51:00
1:51 PM,44.1,32.0,63,30.20,10.0,ENE,9.2,-,N/A,,Overcast,60,2012-11-03 18:51:00
2:51 PM,45.0,32.0,60,30.19,10.0,Variable,5.8,-,N/A,,Overcast,0,2012-11-03 19:51:00
3:51 PM,44.1,33.1,65,30.20,10.0,ENE,8.1,-,N/A,,Overcast,70,2012-11-03 20:51:00
4:17 PM,44.6,33.8,66,30.19,10.0,NE,5.8,-,N/A,,Overcast,40,2012-11-03 21:17:00
4:51 PM,43.0,33.1,68,30.20,10.0,ENE,6.9,-,N/A,,Overcast,60,2012-11-03 21:51:00
5:51 PM,43.0,33.1,68,30.20,10.0,NNE,5.8,-,N/A,,Overcast,20,2012-11-03 22:51:00
6:51 PM,43.0,32.0,65,30.22,10.0,North,9.2,-,N/A,,Overcast,360,2012-11-03 23:51:00
7:30 PM,42.8,35.6,76,30.21,10.0,NNW,5.8,-,N/A,,Overcast,340,2012-11-04 00:30:00
7:51 PM,43.0,35.1,74,30.23,10.0,NNW,5.8,-,N/A,,Overcast,330,2012-11-04 00:51:00
8:15 PM,42.8,35.6,76,30.20,10.0,NNW,8.1,-,N/A,,Overcast,340,2012-11-04 01:15:00
8:51 PM,43.0,35.1,74,30.22,10.0,North,9.2,-,N/A,,Overcast,360,2012-11-04 01:51:00
9:30 PM,42.8,33.8,70,30.20,10.0,NNW,6.9,-,N/A,,Overcast,330,2012-11-04 02:30:00
9:51 PM,43.0,32.0,65,30.22,10.0,NNW,8.1,-,N/A,,Overcast,340,2012-11-04 02:51:00
10:07 PM,42.8,30.2,61,30.20,10.0,NNW,8.1,-,N/A,,Overcast,340,2012-11-04 03:07:00
10:51 PM,41.0,30.9,67,30.22,10.0,NNW,5.8,-,N/A,,Scattered Clouds,340,2012-11-04 03:51:00
11:51 PM,39.9,30.9,70,30.22,10.0,NNW,5.8,-,N/A,,Mostly Cloudy,330,2012-11-04 04:51:00